Weather History for KPHL - February, 2014

Change the Weather History Date:

Monday, February 10, 2014

  Actual Average Record
Temperature  
Mean Temperature 24 °F 35 °F  
Max Temperature 29 °F 43 °F 65 °F (1925)
Min Temperature 18 °F 27 °F -6 °F (1899)
Degree Days  
Heating Degree Days 41 30  
Month to date heating degree days 332 309  
Since 1 July heating degree days 3076 2972  
Cooling Degree Days 0 0  
Month to date cooling degree days 0 0  
Year to date cooling degree days 0 0  
Moisture  
Dew Point 10 °F    
Average Humidity 64    
Maximum Humidity 88    
Minimum Humidity 39    
Precipitation  
Precipitation 0.00 in 0.09 in 1.10 in (2010)
Month to date precipitation 2.74 0.96  
Year to date precipitation 6.29 3.99  
Snow  
Snow 0.00 in 0.40 in 9.30 in (2010)
Month to date snowfall 6.2 3.5  
Since 1 July snowfall 43.3 13.7  
Snow Depth 3.00 in    
Sea Level Pressure  
Sea Level Pressure 30.20 in    
Wind  
Wind Speed 10 mph (NW)    
Max Wind Speed 18 mph    
Max Gust Speed 23 mph    
Visibility 9 miles    
Events      
T = Trace of Precipitation, MM = Missing Value Source: NWS Daily Summary

Daily Weather History Graph

Daily Weather History Graph

Search for Another Location

Airport or City:

Trip Planner

Search our weather history database for the weather conditions in past years. The results will help you decide how hot, cold, wet, or windy it might be!

Date:

Astronomy

Feb. 10, 2014 Rise Set
Actual Time 6:59 AM EST 5:31 PM EST
Civil Twilight 6:31 AM EST 5:59 PM EST
Nautical Twilight 5:59 AM EST 6:31 PM EST
Astronomical Twilight 5:28 AM EST 7:02 PM EST
Moon 1:58 PM EST (2/10) 3:50 AM EST (2/10)
Length of Visible Light 11h 27m
Length of Day
10h 31m
Waxing Gibbous, 84% of the Moon is Illuminated
Feb 10
Waxing Gibbous
Feb 14
Full
Feb 22
Last Quarter
Mar 1
New
Mar 8
First Quarter

Hourly Weather History & Observations

Time (EST) Temp. Windchill Dew Point Humidity Pressure Visibility Wind Dir Wind Speed Gust Speed Precip Events Conditions
12:54 AM 23.0 °F 13.9 °F 19.0 °F 85% 30.07 in 5.0 mi West 8.1 mph - N/A   Mostly Cloudy
1:54 AM 25.0 °F 18.1 °F 19.9 °F 81% 30.07 in 5.0 mi NW 5.8 mph - N/A   Haze
2:54 AM 26.1 °F 18.4 °F 19.0 °F 75% 30.08 in 5.0 mi NNW 6.9 mph - N/A   Haze
3:54 AM 26.1 °F 15.6 °F 16.0 °F 66% 30.10 in 6.0 mi NW 11.5 mph - N/A   Haze
3:59 AM 26.6 °F 16.2 °F 15.8 °F 64% 30.10 in 7.0 mi NW 11.5 mph - N/A   Mostly Cloudy
4:54 AM 25.0 °F 15.5 °F 12.9 °F 60% 30.14 in 8.0 mi WNW 9.2 mph - N/A   Overcast
5:54 AM 24.1 °F 14.4 °F 12.9 °F 62% 30.16 in 9.0 mi WNW 9.2 mph - N/A   Mostly Cloudy
6:11 AM 23.0 °F 13.1 °F 12.2 °F 63% 30.16 in 10.0 mi NW 9.2 mph - N/A   Mostly Cloudy
6:54 AM 23.0 °F 13.9 °F 12.0 °F 63% 30.19 in 10.0 mi WNW 8.1 mph - N/A   Scattered Clouds
7:54 AM 21.9 °F 11.7 °F 10.9 °F 63% 30.22 in 10.0 mi WNW 9.2 mph - N/A   Mostly Cloudy
8:54 AM 23.0 °F 10.6 °F 10.9 °F 60% 30.22 in 10.0 mi NW 13.8 mph - N/A   Mostly Cloudy
9:54 AM 24.1 °F 12.0 °F 9.0 °F 53% 30.23 in 10.0 mi NW 13.8 mph 23.0 mph N/A   Mostly Cloudy
10:54 AM 25.0 °F 12.6 °F 9.0 °F 51% 30.23 in 10.0 mi NW 15.0 mph - N/A   Mostly Cloudy
11:54 AM 26.1 °F 13.1 °F 9.0 °F 49% 30.22 in 10.0 mi NNW 17.3 mph - N/A   Mostly Cloudy
12:54 PM 27.0 °F 16.7 °F 8.1 °F 45% 30.20 in 10.0 mi NNW 11.5 mph - N/A   Mostly Cloudy
1:54 PM 28.0 °F 18.1 °F 7.0 °F 41% 30.18 in 10.0 mi NW 11.5 mph - N/A   Mostly Cloudy
2:54 PM 28.0 °F 19.3 °F 8.1 °F 43% 30.19 in 10.0 mi WNW 9.2 mph - N/A   Mostly Cloudy
3:54 PM 28.9 °F 19.8 °F 7.0 °F 40% 30.20 in 10.0 mi WNW 10.4 mph - N/A   Mostly Cloudy
4:54 PM 28.9 °F 19.8 °F 6.1 °F 38% 30.22 in 10.0 mi WNW 10.4 mph - N/A   Mostly Cloudy
5:54 PM 28.0 °F 19.3 °F 6.1 °F 39% 30.24 in 10.0 mi WNW 9.2 mph - N/A   Mostly Cloudy
6:54 PM 27.0 °F 18.7 °F 6.1 °F 41% 30.26 in 10.0 mi WNW 8.1 mph - N/A   Mostly Cloudy
7:54 PM 26.1 °F 17.6 °F 7.0 °F 44% 30.28 in 10.0 mi WNW 8.1 mph - N/A   Scattered Clouds
8:54 PM 25.0 °F 15.5 °F 7.0 °F 46% 30.29 in 10.0 mi WNW 9.2 mph - N/A   Partly Cloudy
9:54 PM 24.1 °F 16.0 °F 6.1 °F 46% 30.31 in 10.0 mi WNW 6.9 mph - N/A   Partly Cloudy
10:54 PM 24.1 °F 17.0 °F 6.1 °F 46% 30.32 in 10.0 mi WNW 5.8 mph - N/A   Clear
11:54 PM 19.0 °F 10.0 °F 6.1 °F 57% 30.32 in 10.0 mi West 6.9 mph - N/A   Clear